Washington, DC - DCA

Welcome to the Capitol

Ronald Reagan Washington National Airport serves the United States Capitol as American Airlines' domestic only hub connecting the east coast. AAG operates over 30% of the total passenger share out of this airport which features some of the most difficult approaches due to the surrounding airspace and close proximity to the capitol buildings.

DCA Based Pilots: 18   Miles to DCA: 182264
Flights from DCA: 385   Total Hours: 1111.59
Routes using DCA: 1146   From DCA: 581.87
Total Miles: 371595   Hours To DCA: 529.72
Miles from DCA: 189331   DCA Charts: Click Here
VATSIM METAR: KDCA 141352Z 19011KT 10SM SCT250 18/04 A3000 RMK AO2 SLP159 T01780044
 
         
View More: Click Here
   

 

Earn Your Wings

Interested in joining our DCA hub? Hover for more!

Your journey starts here. Your journey starts now. A whole new experience is at your fingertips.

Like what you see and ready to join the team?

A rewarding and memorable virtual airline experience awaits!